Regional Weather Roundup
Issued by NWS

Home | Current Version | Previous Version | Graphics & Text | Print | Product List | Glossary On
Versions: 1 2 3 4 5 6 7 8 9 10 11 12 13 14 15 16 17 18 19 20 21 22 23 24 25 26 27 28 29 30 31 32 33 34 35 36 37 38 39 40 41 42 43 44 45 46 47 48 49 50
000
ASUS43 KLOT 220808
RWRIL

ILLINOIS REGIONAL WEATHER ROUNDUP
NATIONAL WEATHER SERVICE CHICAGO/ROMEOVILLE IL
300 AM CDT TUE MAY 22 2018

NOTE: "FAIR" INDICATES FEW OR NO CLOUDS BELOW 12,000 FEET WITH NO
SIGNIFICANT WEATHER AND/OR OBSTRUCTIONS TO VISIBILITY.

* THESE STATIONS ARE NOT UNDER NWS QUALITY CONTROL. THEY ALSO MAY NOT
  REPORT WEATHER SUCH AS PRECIPITATION OR FOG.

ILZ001-002-007-009-015-016-024-220900-
NORTHWEST ILLINOIS

CITY           SKY/WX    TMP DP  RH WIND       PRES   REMARKS
MOLINE         FAIR      61  58  90 W5        29.99F
SAVANNA*       CLOUDY    62  61  96 W6        29.99S FOG
$$

ILZ003-004-008-010-011-017-018-220900-
NORTH CENTRAL ILLINOIS

CITY           SKY/WX    TMP DP  RH WIND       PRES   REMARKS
ROCKFORD       FOG       57  56  96 SE3       29.99S VSB 1/4
FREEPORT*      FOG       58  58 100 CALM      30.00S VSB 1/4
ROCHELLE*      FOG       58  58 100 CALM      29.99S VSB<1/4
DE KALB*       FOG       58  58 100 CALM      29.99S VSB 1/4
PERU*          FOG       64  64  97 NW7       29.99R VSB 1/4
$$

ILZ005-006-012>014-019>023-220900-
NORTHEAST ILLINOIS

CITY           SKY/WX    TMP DP  RH WIND       PRES   REMARKS
CHICAGO-OHARE  FOG       54  53  97 N3        29.97S VSB 1/2
CHICAGO-MIDWAY CLOUDY    57  57 100 E3        29.96S FOG
AURORA         FOG       60  60 100 N3        29.97F VSB 1/4
LANSING*       FOG       57  57 100 CALM      29.96F VSB 1/4
JOLIET*        CLOUDY    64  64 100 CALM      29.97S FOG
WAUKEGAN       FOG       50  50 100 NW3       29.98R VSB 1/2
DUPAGE AIRPORT FOG       57  57 100 N6        29.98R VSB 1/4
KANKAKEE*      CLOUDY    65  64  99 SW5       29.97S FOG
WHEELING       FOG       54  54 100 CALM      30.00R VSB 1/4
MORRIS*        FOG       64  63  98 N3        29.97R VSB 1/4
ROMEOVILLE*    FOG       61  61 100 CALM      29.97S VSB 3/4
NORTHERLY ISL    N/A     51  49  92 S2          N/A
$$

LMZ740>746-220900-
SOUTHERN LAKE MICHIGAN

STATION/POSITION SKY/WX   TEMP    WIND        PRES    VSBY  WAVE
                          AIR SEA DIR/SP/G                  HT/PER
                          (F)     (DEG/KT/KT) (MB)    (MI)  (FT/S)
WILMETTE HARBOR            45 47  350/  6/  8   N/A           1/ 4
HARRISON CRIB              48     350/ 13/ 14   N/A
BURNHAM HARBOR             51      10/  1/  9   N/A
CALUMET HARBOR             50     350/  4/  5 1014.6S
BURNS HARBOR               53        CALM     1015.2F
MICHIGAN CITY 6N           51 53  320/  6/  8   N/A           1
ST. JOSEPH                 54 53  310/  4/  6 1015.1          1
$$

ILZ025>027-034>036-040-047-049-050-058-095>099-220900-
WEST-CENTRAL ILLINOIS

CITY           SKY/WX    TMP DP  RH WIND       PRES   REMARKS
QUINCY         MOCLDY    63  60  90 N3        29.99F
GALESBURG*     FAIR      60  59  97 NW6       30.00S FOG
MACOMB*        MOCLDY    61  60  97 N3        30.01S FOG
JACKSONVILLE*  PTCLDY    65  63  91 W3        29.98S
PITTSFIELD*    PTCLDY    66  63  89 W3        30.01R
$$

ILZ028>032-037-038-041>044-048-051>054-059>061-220900-
CENTRAL ILLINOIS

CITY           SKY/WX    TMP DP  RH WIND       PRES   REMARKS
PONTIAC        CLOUDY    67  67  98 W5        29.98S
BLOOMINGTON    MOCLDY    67  66  97 W5        30.00R
DECATUR        MOCLDY    68  66  93 SW7       29.98S
PEORIA         CLOUDY    66  64  93 CALM      29.99S
LACON*         CLOUDY    64  64 100 CALM      29.98S FOG
LINCOLN*       CLOUDY    68  68  99 CALM      29.98S FOG
SPRINGFIELD    FOG       67  67 100 CALM      29.98S VSB 1
TAYLORVILLE    FAIR      66  66 100 S5        29.98F FOG
$$

ILZ033-039-045-046-055>057-062-063-220900-
EAST-CENTRAL ILLINOIS

CITY           SKY/WX    TMP DP  RH WIND       PRES   REMARKS
CHAMPAIGN      FAIR      65  65 100 SW6       29.98F
DANVILLE*      FAIR      64  64 100 S3        29.97S FOG
RANTOUL*       FAIR      67  67  98 SW5       29.99R FOG
MATTOON        FAIR      68  67  96 S5        29.98F
PARIS*         FAIR      64  64 100 S7        30.00S
$$

ILZ079-100>102-220900-
SOUTHWEST ILLINOIS

CITY           SKY/WX    TMP DP  RH WIND       PRES   REMARKS
ALTON          PTCLDY    68  68 100 W6        29.99S
BELLEVILLE     PTCLDY    68  67  96 W3        29.97F
CAHOKIA*       CLOUDY    71  68  90 W3        29.99S
SPARTA*        CLEAR     68  68 100 CALM      30.00S
$$

ILZ064>066-069>071-074>076-080>082-084>086-088>090-092>094-220900-
SOUTH-CENTRAL ILLINOIS

CITY           SKY/WX    TMP DP  RH WIND       PRES   REMARKS
CARBONDALE     FAIR      66  66 100 CALM      29.99S FOG
CAIRO*         FAIR      69  69 100 CALM      30.00S FOG
EFFINGHAM*     FOG       64  64 100 CALM      30.01S VSB 1/2
MARION           N/A     66  65  98 CALM      30.01S FOG
CENTRALIA*     CLEAR     67  67 100 CALM      29.99S
SALEM*         FAIR      67  65  94 CALM      30.00S FOG
$$

ILZ067-068-072-073-078-083-087-091-220900-
SOUTHEAST ILLINOIS

CITY           SKY/WX    TMP DP  RH WIND       PRES   REMARKS
LAWRENCEVILLE  FAIR      68  67  96 S5        30.00F FOG
FLORA*         FAIR      67  66  96 CALM      30.00S FOG
FAIRFIELD*     FAIR      65  65 100 CALM      29.99S FOG
HARRISBURG*    FAIR      67  67 100 CALM      30.00S FOG
ROBINSON*        N/A     64  64 100 CALM      30.01S FOG
CARMI*         MOCLDY    67  67 100 CALM      30.00S FOG
$$

ABBREVIATIONS USED IN REMARKS
   TC - TEMPERATURE IN CELSIUS
  WCI - WIND CHILL INDEX
   HX - HEAT INDEX
  VSB - VISIBILITY
$$




USA.gov is the U.S. government's official web portal to all federal, state and local government web resources and services.